SL-14 DEB

Satellite information

Favourite Embed

Satellite Type and Status

DEBRISIN ORBIT

Key statistics

Satellite SL-14 DEB at a glance.

Uptime

12495

Days in orbit

Revolutions

≈ 13.4

Per day

Orbit

LEO

Low Earth Orbit

Inclination

82.5

Latest

Satellite identification and parameters

Extended collection of information and parameters for SL-14 DEB.

Object identification

Identified? True

Debris? True

Object name: SL-14 DEB

International designator: 1991-056CU

Object number (NORAD): 45469

Object ID (CCSDS): 45469

Country: COMMONWEALTH OF INDEPENDENT STATES (CIS)

Current information (Y/N): Y

RCS size: SMALL

Orbital parameters

Period: 107.276 minutes

Inclination: 82.5466 deg

SMA: 7478.756 km

Apoapsis: 1180.361 km

Periapsis: 1020.882 km

RAAN: 242.5491 deg

Eccentricy: 0.01066212

Argument of periapsis: 78.0471 deg

Mean anomaly: 283.2594 deg

Mean motion: 13.42328139 rev/day

Mean motion (dot): 0.00001524 rev/day2

B* drag term: 0.002590018 1/REarth

Two-line elements (TLE)

Creation date: Oct. 28, 2025, 7:11 p.m.

Reference frame: TEME

Reference center: EARTH

Epoch: Oct. 28, 2025, 7:14 a.m. UTC

TLE line 0: 0 SL-14 DEB

TLE line 1: 1 45469U 91056CU 25301.30205902 .00001524 00000-0 25900-2 0 9991

TLE line 2: 2 45469 82.5466 242.5491 0106621 78.0471 283.2594 13.42328139274328

Live tracking on map

Real-time ground track for satellite SL-14 DEB.

In-orbit conjunctions

A list of the most updated potential collisions computed for object SL-14 DEB.

Target Orbit TCA Probability of collision Miss distance Type
NOVA 2 LEO 2024-06-22 13:14:06 0.0001369294 388.0 (m) PAYLOAD

Associated space launch

Third generation meteorological satellite

SL-14 DEB was lifted into orbit during the mission ‘Tsiklon-3 | Meteor-3 5’, on board a Tsiklon-3 space rocket.

The launch took place on Aug. 15, 1991, 9:15 a.m. from 32/2.

For more information about the launch, click the button.

Launch to space Tsiklon-3 | Meteor-3 5
Tsiklon-3 | Meteor-3 5

Agency: N/A

Status: Launch Successful

Launch date: Aug. 15, 1991, 9:15 a.m. UTC

Rocket: Tsiklon-3

Launch pad: 32/2

Location: Plesetsk Cosmodrome, Russian Federation

...

Latest news about this satellite

There are no fresh news available about this satellite. Check back as we update our databases every day.


Newsletter sign-up

Weekly statistics, charts and insights to help you stay on top of the space industry.